Time,TemperatureF,DewpointF,PressureIn,WindDirection,WindDirectionDegrees,WindSpeedMPH,WindSpeedGustMPH,Humidity,HourlyPrecipIn,Conditions,Clouds,dailyrainin,SoftwareType,DateUTC
2013-02-13 00:00:00,40.0,38.4,29.80,WSW,248,1.0,5.0,94,0.00,,,0.04,Weather View 32 v70,2013-02-13 05:00:00,
2013-02-13 00:05:00,40.0,38.4,29.80,NE,45,3.0,5.0,94,0.00,,,0.00,Weather View 32 v70,2013-02-13 05:05:00,
2013-02-13 00:10:00,40.0,38.7,29.79,NE,45,5.0,5.0,95,0.00,,,0.00,Weather View 32 v70,2013-02-13 05:10:00,
2013-02-13 00:15:00,40.0,39.0,29.79,NNE,22,2.0,5.0,96,0.00,,,0.00,Weather View 32 v70,2013-02-13 05:15:00,
2013-02-13 00:20:00,40.0,39.0,29.79,West,270,1.0,5.0,96,0.00,,,0.00,Weather View 32 v70,2013-02-13 05:20:00,
2013-02-13 00:25:00,40.0,39.0,29.79,ENE,68,0.0,5.0,96,0.00,,,0.00,Weather View 32 v70,2013-02-13 05:25:00,
2013-02-13 00:30:00,40.0,39.0,29.79,NNE,22,3.0,5.0,96,0.00,,,0.00,Weather View 32 v70,2013-02-13 05:30:00,
2013-02-13 00:35:00,40.0,39.2,29.77,NE,45,5.0,5.0,97,0.00,,,0.00,Weather View 32 v70,2013-02-13 05:35:00,
2013-02-13 00:40:00,40.0,39.2,29.77,NE,45,1.0,5.0,97,0.00,,,0.00,Weather View 32 v70,2013-02-13 05:40:00,
2013-02-13 00:45:00,40.0,39.2,29.77,East,90,0.0,5.0,97,0.00,,,0.00,Weather View 32 v70,2013-02-13 05:45:00,
2013-02-13 00:50:00,40.0,39.5,29.76,NNE,22,2.0,5.0,98,0.00,,,0.00,Weather View 32 v70,2013-02-13 05:50:00,
2013-02-13 00:55:00,40.0,39.5,29.76,NNE,22,2.0,5.0,98,0.00,,,0.00,Weather View 32 v70,2013-02-13 05:55:00,
2013-02-13 01:00:00,40.0,39.7,29.77,WNW,292,3.0,5.0,99,0.00,,,0.00,Weather View 32 v70,2013-02-13 06:00:00,
2013-02-13 01:05:00,40.0,39.7,29.77,West,270,2.0,5.0,99,0.00,,,0.00,Weather View 32 v70,2013-02-13 06:05:00,
2013-02-13 01:10:00,40.0,39.7,29.76,ESE,112,4.0,5.0,99,0.00,,,0.00,Weather View 32 v70,2013-02-13 06:10:00,
2013-02-13 01:15:00,40.0,39.7,29.77,West,270,3.0,6.0,99,0.00,,,0.00,Weather View 32 v70,2013-02-13 06:15:00,
2013-02-13 01:20:00,40.0,39.7,29.74,East,90,1.0,6.0,99,0.00,,,0.00,Weather View 32 v70,2013-02-13 06:20:00,
2013-02-13 01:25:00,39.0,38.7,29.76,WNW,292,1.0,6.0,99,0.00,,,0.00,Weather View 32 v70,2013-02-13 06:25:00,
2013-02-13 01:30:00,39.0,38.7,29.74,NE,45,3.0,6.0,99,0.01,,,0.01,Weather View 32 v70,2013-02-13 06:30:00,
2013-02-13 01:35:00,40.0,40.0,29.74,NNE,22,3.0,6.0,100,0.01,,,0.01,Weather View 32 v70,2013-02-13 06:35:00,
2013-02-13 01:40:00,40.0,40.0,29.73,ENE,68,3.0,6.0,100,0.01,,,0.01,Weather View 32 v70,2013-02-13 06:40:00,
2013-02-13 01:45:00,40.0,40.0,29.73,NNE,22,3.0,6.0,100,0.01,,,0.01,Weather View 32 v70,2013-02-13 06:45:00,
2013-02-13 01:50:00,39.0,39.0,29.74,NNW,338,2.0,6.0,100,0.01,,,0.01,Weather View 32 v70,2013-02-13 06:50:00,
2013-02-13 01:55:00,39.0,39.0,29.74,NNE,22,3.0,6.0,100,0.01,,,0.01,Weather View 32 v70,2013-02-13 06:55:00,
2013-02-13 02:00:00,39.0,39.0,29.74,North,0,3.0,6.0,100,0.01,,,0.01,Weather View 32 v70,2013-02-13 07:00:00,
2013-02-13 02:05:00,39.0,39.0,29.73,NNW,338,3.0,6.0,100,0.01,,,0.01,Weather View 32 v70,2013-02-13 07:05:00,
2013-02-13 02:10:00,39.0,39.0,29.73,North,0,1.0,6.0,100,0.01,,,0.01,Weather View 32 v70,2013-02-13 07:10:00,
2013-02-13 02:15:00,39.0,39.0,29.72,NW,315,0.0,6.0,100,0.01,,,0.01,Weather View 32 v70,2013-02-13 07:15:00,
2013-02-13 02:20:00,39.0,39.0,29.72,NNW,338,2.0,6.0,100,0.01,,,0.01,Weather View 32 v70,2013-02-13 07:20:00,
2013-02-13 02:25:00,39.0,39.0,29.72,NNW,338,1.0,6.0,100,0.01,,,0.01,Weather View 32 v70,2013-02-13 07:25:00,
2013-02-13 02:30:00,39.0,39.0,29.72,NW,315,1.0,6.0,100,0.00,,,0.01,Weather View 32 v70,2013-02-13 07:30:00,
2013-02-13 02:35:00,39.0,39.0,29.72,NE,45,1.0,6.0,100,0.01,,,0.02,Weather View 32 v70,2013-02-13 07:35:00,
2013-02-13 02:40:00,39.0,39.0,29.72,ENE,68,0.0,6.0,100,0.01,,,0.02,Weather View 32 v70,2013-02-13 07:40:00,
2013-02-13 02:45:00,39.0,39.0,29.73,WSW,248,1.0,6.0,100,0.01,,,0.02,Weather View 32 v70,2013-02-13 07:45:00,
2013-02-13 02:50:00,39.0,39.0,29.73,SSW,202,0.0,6.0,100,0.01,,,0.02,Weather View 32 v70,2013-02-13 07:50:00,
2013-02-13 02:55:00,39.0,39.0,29.73,WSW,248,0.0,6.0,100,0.01,,,0.02,Weather View 32 v70,2013-02-13 07:55:00,
2013-02-13 03:00:00,39.0,39.0,29.73,ESE,112,0.0,6.0,100,0.01,,,0.02,Weather View 32 v70,2013-02-13 08:00:00,
2013-02-13 03:05:00,39.0,39.0,29.72,East,90,0.0,5.0,100,0.01,,,0.02,Weather View 32 v70,2013-02-13 08:05:00,
2013-02-13 03:10:00,39.0,39.0,29.71,ESE,112,1.0,3.0,100,0.01,,,0.02,Weather View 32 v70,2013-02-13 08:10:00,
2013-02-13 03:15:00,39.0,39.0,29.71,NE,45,0.0,3.0,100,0.01,,,0.02,Weather View 32 v70,2013-02-13 08:15:00,
2013-02-13 03:20:00,39.0,39.0,29.71,WNW,292,1.0,3.0,100,0.01,,,0.02,Weather View 32 v70,2013-02-13 08:20:00,
2013-02-13 03:25:00,39.0,39.0,29.71,ENE,68,0.0,3.0,100,0.01,,,0.02,Weather View 32 v70,2013-02-13 08:25:00,
2013-02-13 03:30:00,39.0,39.0,29.71,WSW,248,1.0,3.0,100,0.01,,,0.02,Weather View 32 v70,2013-02-13 08:30:00,
2013-02-13 03:35:00,39.0,39.0,29.71,SSW,202,1.0,3.0,100,0.00,,,0.02,Weather View 32 v70,2013-02-13 08:35:00,
2013-02-13 03:40:00,39.0,39.0,29.70,ESE,112,0.0,3.0,100,0.00,,,0.02,Weather View 32 v70,2013-02-13 08:40:00,
2013-02-13 03:45:00,39.0,39.0,29.70,SSW,202,0.0,3.0,100,0.00,,,0.02,Weather View 32 v70,2013-02-13 08:45:00,
2013-02-13 03:50:00,39.0,39.0,29.69,ESE,112,0.0,3.0,100,0.00,,,0.02,Weather View 32 v70,2013-02-13 08:50:00,
2013-02-13 03:55:00,39.0,39.0,29.70,SSE,158,0.0,3.0,100,0.00,,,0.02,Weather View 32 v70,2013-02-13 08:55:00,
2013-02-13 04:00:00,39.0,39.0,29.69,NE,45,1.0,3.0,100,0.00,,,0.02,Weather View 32 v70,2013-02-13 09:00:00,
2013-02-13 04:05:00,39.0,39.0,29.69,NE,45,0.0,3.0,100,0.00,,,0.02,Weather View 32 v70,2013-02-13 09:05:00,
2013-02-13 04:10:00,39.0,39.0,29.69,SSW,202,1.0,3.0,100,0.00,,,0.02,Weather View 32 v70,2013-02-13 09:10:00,
2013-02-13 04:15:00,39.0,39.0,29.68,ESE,112,0.0,3.0,100,0.00,,,0.02,Weather View 32 v70,2013-02-13 09:15:00,
2013-02-13 04:20:00,39.0,39.0,29.69,ESE,112,0.0,3.0,100,0.00,,,0.02,Weather View 32 v70,2013-02-13 09:20:00,
2013-02-13 04:25:00,39.0,39.0,29.68,SW,225,0.0,3.0,100,0.00,,,0.02,Weather View 32 v70,2013-02-13 09:25:00,
2013-02-13 04:30:00,39.0,39.0,29.67,NNE,22,1.0,3.0,100,0.00,,,0.02,Weather View 32 v70,2013-02-13 09:30:00,
2013-02-13 04:35:00,39.0,39.0,29.68,WNW,292,1.0,3.0,100,0.00,,,0.02,Weather View 32 v70,2013-02-13 09:35:00,
2013-02-13 04:40:00,39.0,39.0,29.68,ESE,112,0.0,3.0,100,0.01,,,0.03,Weather View 32 v70,2013-02-13 09:40:00,
2013-02-13 04:45:00,39.0,39.0,29.68,ESE,112,0.0,3.0,100,0.01,,,0.03,Weather View 32 v70,2013-02-13 09:45:00,
2013-02-13 04:50:00,39.0,39.0,29.68,WSW,248,0.0,3.0,100,0.01,,,0.03,Weather View 32 v70,2013-02-13 09:50:00,
2013-02-13 04:55:00,39.0,39.0,29.68,ENE,68,1.0,3.0,100,0.01,,,0.03,Weather View 32 v70,2013-02-13 09:55:00,
2013-02-13 05:00:00,39.0,39.0,29.68,ENE,68,1.0,5.0,100,0.01,,,0.03,Weather View 32 v70,2013-02-13 10:00:00,
2013-02-13 05:06:00,39.0,39.0,29.68,ESE,112,0.0,5.0,100,0.01,,,0.03,Weather View 32 v70,2013-02-13 10:06:00,
2013-02-13 05:11:00,39.0,39.0,29.68,NE,45,1.0,5.0,100,0.01,,,0.03,Weather View 32 v70,2013-02-13 10:11:00,
2013-02-13 05:16:00,39.0,39.0,29.68,South,180,3.0,5.0,100,0.01,,,0.03,Weather View 32 v70,2013-02-13 10:16:00,
2013-02-13 05:21:00,39.0,39.0,29.67,ENE,68,1.0,5.0,100,0.01,,,0.03,Weather View 32 v70,2013-02-13 10:21:00,
2013-02-13 05:26:00,39.0,39.0,29.67,NNE,22,1.0,5.0,100,0.01,,,0.03,Weather View 32 v70,2013-02-13 10:26:00,
2013-02-13 05:31:00,39.0,39.0,29.66,ENE,68,1.0,5.0,100,0.01,,,0.03,Weather View 32 v70,2013-02-13 10:31:00,
2013-02-13 05:36:00,39.0,39.0,29.66,NNE,22,2.0,5.0,100,-0.02,,,0.03,Weather View 32 v70,2013-02-13 10:36:00,
2013-02-13 05:41:00,39.0,39.0,29.66,SE,135,0.0,5.0,100,-0.03,,,0.03,Weather View 32 v70,2013-02-13 10:41:00,
2013-02-13 05:46:00,38.0,38.0,29.66,ENE,68,1.0,5.0,100,0.00,,,0.03,Weather View 32 v70,2013-02-13 10:46:00,
2013-02-13 05:51:00,38.0,38.0,29.66,ESE,112,0.0,5.0,100,0.00,,,0.03,Weather View 32 v70,2013-02-13 10:51:00,
2013-02-13 05:56:00,38.0,38.0,29.66,East,90,0.0,5.0,100,0.00,,,0.03,Weather View 32 v70,2013-02-13 10:56:00,
2013-02-13 06:01:00,38.0,38.0,29.67,SE,135,1.0,5.0,100,0.00,,,0.03,Weather View 32 v70,2013-02-13 11:01:00,
2013-02-13 06:06:00,38.0,38.0,29.66,ENE,68,0.0,5.0,100,0.00,,,0.03,Weather View 32 v70,2013-02-13 11:06:00,
2013-02-13 06:11:00,38.0,38.0,29.65,North,0,0.0,4.0,100,0.00,,,0.03,Weather View 32 v70,2013-02-13 11:11:00,
2013-02-13 06:16:00,38.0,38.0,29.65,North,0,1.0,4.0,100,0.00,,,0.03,Weather View 32 v70,2013-02-13 11:16:00,
2013-02-13 06:21:00,39.0,39.0,29.64,ENE,68,0.0,3.0,100,0.00,,,0.03,Weather View 32 v70,2013-02-13 11:21:00,
2013-02-13 06:26:00,38.0,38.0,29.64,ESE,112,0.0,3.0,100,0.00,,,0.03,Weather View 32 v70,2013-02-13 11:26:00,
2013-02-13 06:31:00,38.0,38.0,29.65,NW,315,0.0,3.0,100,0.00,,,0.03,Weather View 32 v70,2013-02-13 11:31:00,
2013-02-13 06:36:00,39.0,39.0,29.64,East,90,2.0,3.0,100,0.00,,,0.03,Weather View 32 v70,2013-02-13 11:36:00,
2013-02-13 06:41:00,38.0,38.0,29.63,SSW,202,2.0,3.0,100,0.00,,,0.03,Weather View 32 v70,2013-02-13 11:41:00,
2013-02-13 06:46:00,38.0,38.0,29.63,South,180,0.0,3.0,100,0.00,,,0.03,Weather View 32 v70,2013-02-13 11:46:00,
2013-02-13 06:51:00,38.0,38.0,29.63,ENE,68,0.0,3.0,100,0.00,,,0.03,Weather View 32 v70,2013-02-13 11:51:00,
2013-02-13 06:56:00,38.0,38.0,29.64,WSW,248,0.0,3.0,100,0.00,,,0.03,Weather View 32 v70,2013-02-13 11:56:00,
2013-02-13 07:01:00,38.0,38.0,29.65,NNE,22,0.0,3.0,100,0.00,,,0.03,Weather View 32 v70,2013-02-13 12:01:00,
2013-02-13 07:06:00,38.0,38.0,29.66,SSE,158,0.0,3.0,100,0.00,,,0.03,Weather View 32 v70,2013-02-13 12:06:00,
2013-02-13 07:11:00,38.0,38.0,29.64,ENE,68,0.0,3.0,100,0.00,,,0.03,Weather View 32 v70,2013-02-13 12:11:00,
2013-02-13 07:16:00,38.0,38.0,29.64,North,0,0.0,3.0,100,0.00,,,0.03,Weather View 32 v70,2013-02-13 12:16:00,
2013-02-13 07:21:00,38.0,38.0,29.65,SE,135,0.0,3.0,100,0.00,,,0.03,Weather View 32 v70,2013-02-13 12:21:00,
2013-02-13 07:26:00,38.0,38.0,29.67,West,270,1.0,3.0,100,0.00,,,0.03,Weather View 32 v70,2013-02-13 12:26:00,
2013-02-13 07:31:00,38.0,38.0,29.67,NE,45,0.0,3.0,100,0.00,,,0.03,Weather View 32 v70,2013-02-13 12:31:00,
2013-02-13 07:36:00,38.0,38.0,29.66,SE,135,3.0,4.0,100,0.00,,,0.03,Weather View 32 v70,2013-02-13 12:36:00,
2013-02-13 07:41:00,38.0,38.0,29.65,East,90,0.0,4.0,100,0.00,,,0.03,Weather View 32 v70,2013-02-13 12:41:00,
2013-02-13 07:46:00,38.0,38.0,29.63,North,0,1.0,4.0,100,0.00,,,0.03,Weather View 32 v70,2013-02-13 12:46:00,
2013-02-13 07:51:00,38.0,38.0,29.65,WSW,248,1.0,4.0,100,0.00,,,0.03,Weather View 32 v70,2013-02-13 12:51:00,
2013-02-13 07:56:00,38.0,38.0,29.66,NNW,338,0.0,4.0,100,0.00,,,0.03,Weather View 32 v70,2013-02-13 12:56:00,
2013-02-13 08:01:00,38.0,38.0,29.65,North,0,2.0,4.0,100,0.00,,,0.03,Weather View 32 v70,2013-02-13 13:01:00,
2013-02-13 08:06:00,38.0,38.0,29.64,ENE,68,1.0,4.0,100,0.00,,,0.03,Weather View 32 v70,2013-02-13 13:06:00,
2013-02-13 08:11:00,38.0,38.0,29.63,ESE,112,0.0,4.0,100,0.00,,,0.03,Weather View 32 v70,2013-02-13 13:11:00,
2013-02-13 08:16:00,38.0,38.0,29.65,North,0,1.0,4.0,100,0.00,,,0.03,Weather View 32 v70,2013-02-13 13:16:00,
2013-02-13 08:21:00,38.0,38.0,29.64,SSW,202,0.0,4.0,100,0.01,,,0.04,Weather View 32 v70,2013-02-13 13:21:00,
2013-02-13 08:26:00,39.0,39.0,29.64,West,270,1.0,4.0,100,0.01,,,0.04,Weather View 32 v70,2013-02-13 13:26:00,
2013-02-13 08:31:00,39.0,39.0,29.64,ESE,112,0.0,4.0,100,0.01,,,0.04,Weather View 32 v70,2013-02-13 13:31:00,
2013-02-13 08:36:00,39.0,39.0,29.63,ENE,68,1.0,3.0,100,0.01,,,0.04,Weather View 32 v70,2013-02-13 13:36:00,
2013-02-13 08:41:00,39.0,39.0,29.62,WNW,292,1.0,3.0,100,0.01,,,0.04,Weather View 32 v70,2013-02-13 13:41:00,
2013-02-13 08:46:00,39.0,39.0,29.64,West,270,2.0,3.0,100,0.01,,,0.04,Weather View 32 v70,2013-02-13 13:46:00,
2013-02-13 08:51:00,39.0,39.0,29.65,WSW,248,0.0,3.0,100,0.01,,,0.04,Weather View 32 v70,2013-02-13 13:51:00,
2013-02-13 08:56:00,39.0,39.0,29.65,WSW,248,0.0,3.0,100,0.01,,,0.04,Weather View 32 v70,2013-02-13 13:56:00,
2013-02-13 09:01:00,39.0,39.0,29.66,South,180,0.0,3.0,100,0.01,,,0.04,Weather View 32 v70,2013-02-13 14:01:00,
2013-02-13 09:06:00,39.0,39.0,29.65,SW,225,0.0,3.0,100,0.01,,,0.04,Weather View 32 v70,2013-02-13 14:06:00,
2013-02-13 09:11:00,39.0,39.0,29.64,East,90,2.0,3.0,100,0.01,,,0.04,Weather View 32 v70,2013-02-13 14:11:00,
2013-02-13 09:16:00,39.0,39.0,29.64,NE,45,2.0,3.0,100,0.01,,,0.04,Weather View 32 v70,2013-02-13 14:16:00,
2013-02-13 09:21:00,39.0,39.0,29.62,NNE,22,2.0,5.0,100,0.00,,,0.04,Weather View 32 v70,2013-02-13 14:21:00,
2013-02-13 09:26:00,39.0,39.0,29.63,SW,225,1.0,5.0,100,0.00,,,0.04,Weather View 32 v70,2013-02-13 14:26:00,
2013-02-13 09:32:00,39.0,39.0,29.64,ESE,112,0.0,5.0,100,0.00,,,0.04,Weather View 32 v70,2013-02-13 14:32:00,
2013-02-13 09:37:00,39.0,39.0,29.63,West,270,1.0,5.0,100,0.00,,,0.04,Weather View 32 v70,2013-02-13 14:37:00,
2013-02-13 09:42:00,40.0,40.0,29.64,SE,135,1.0,5.0,100,0.00,,,0.04,Weather View 32 v70,2013-02-13 14:42:00,
2013-02-13 09:47:00,40.0,40.0,29.62,ENE,68,2.0,5.0,100,0.00,,,0.04,Weather View 32 v70,2013-02-13 14:47:00,
2013-02-13 09:52:00,40.0,40.0,29.63,SSW,202,2.0,5.0,100,0.00,,,0.04,Weather View 32 v70,2013-02-13 14:52:00,
2013-02-13 09:57:00,40.0,40.0,29.63,ENE,68,1.0,5.0,100,0.00,,,0.04,Weather View 32 v70,2013-02-13 14:57:00,
2013-02-13 10:02:00,40.0,40.0,29.63,WSW,248,3.0,5.0,100,0.00,,,0.04,Weather View 32 v70,2013-02-13 15:02:00,
2013-02-13 10:07:00,40.0,40.0,29.62,NW,315,1.0,5.0,100,0.00,,,0.04,Weather View 32 v70,2013-02-13 15:07:00,
2013-02-13 10:12:00,40.0,40.0,29.63,ENE,68,0.0,5.0,100,0.00,,,0.04,Weather View 32 v70,2013-02-13 15:12:00,
2013-02-13 10:17:00,40.0,40.0,29.63,SSE,158,0.0,5.0,100,0.00,,,0.04,Weather View 32 v70,2013-02-13 15:17:00,
2013-02-13 10:22:00,40.0,40.0,29.62,SE,135,1.0,5.0,100,0.00,,,0.04,Weather View 32 v70,2013-02-13 15:22:00,
2013-02-13 10:27:00,40.0,40.0,29.60,NW,315,1.0,5.0,100,0.00,,,0.04,Weather View 32 v70,2013-02-13 15:27:00,
2013-02-13 10:32:00,40.0,40.0,29.60,NNE,22,1.0,5.0,100,0.00,,,0.04,Weather View 32 v70,2013-02-13 15:32:00,
2013-02-13 10:37:00,40.0,40.0,29.61,West,270,1.0,6.0,100,0.00,,,0.04,Weather View 32 v70,2013-02-13 15:37:00,
2013-02-13 10:42:00,41.0,41.0,29.62,West,270,3.0,6.0,100,0.00,,,0.04,Weather View 32 v70,2013-02-13 15:42:00,
2013-02-13 10:47:00,41.0,41.0,29.61,SW,225,2.0,6.0,100,0.00,,,0.04,Weather View 32 v70,2013-02-13 15:47:00,
2013-02-13 10:52:00,41.0,41.0,29.61,SE,135,3.0,6.0,100,0.00,,,0.04,Weather View 32 v70,2013-02-13 15:52:00,
2013-02-13 10:57:00,41.0,41.0,29.60,West,270,3.0,6.0,100,0.00,,,0.04,Weather View 32 v70,2013-02-13 15:57:00,
2013-02-13 11:02:00,41.0,41.0,29.62,WSW,248,2.0,6.0,100,0.00,,,0.04,Weather View 32 v70,2013-02-13 16:02:00,
2013-02-13 11:07:00,41.0,41.0,29.61,West,270,3.0,6.0,100,0.00,,,0.04,Weather View 32 v70,2013-02-13 16:07:00,
2013-02-13 11:12:00,41.0,41.0,29.61,SSW,202,1.0,6.0,100,0.00,,,0.04,Weather View 32 v70,2013-02-13 16:12:00,
2013-02-13 11:17:00,41.0,41.0,29.60,SSW,202,1.0,6.0,100,0.00,,,0.04,Weather View 32 v70,2013-02-13 16:17:00,
2013-02-13 11:22:00,41.0,41.0,29.60,NE,45,1.0,6.0,100,0.00,,,0.04,Weather View 32 v70,2013-02-13 16:22:00,
2013-02-13 11:27:00,41.0,41.0,29.59,East,90,1.0,6.0,100,0.00,,,0.04,Weather View 32 v70,2013-02-13 16:27:00,
2013-02-13 11:32:00,41.0,41.0,29.59,SSE,158,3.0,6.0,100,0.00,,,0.04,Weather View 32 v70,2013-02-13 16:32:00,
2013-02-13 11:37:00,41.0,41.0,29.60,SW,225,2.0,6.0,100,0.00,,,0.04,Weather View 32 v70,2013-02-13 16:37:00,
2013-02-13 11:42:00,42.0,42.0,29.60,SSW,202,3.0,8.0,100,0.00,,,0.04,Weather View 32 v70,2013-02-13 16:42:00,
2013-02-13 11:47:00,42.0,42.0,29.58,South,180,5.0,8.0,100,0.00,,,0.04,Weather View 32 v70,2013-02-13 16:47:00,
2013-02-13 11:52:00,42.0,42.0,29.59,SSW,202,4.0,8.0,100,0.00,,,0.04,Weather View 32 v70,2013-02-13 16:52:00,
2013-02-13 11:57:00,42.0,42.0,29.59,ESE,112,3.0,8.0,100,0.00,,,0.04,Weather View 32 v70,2013-02-13 16:57:00,
2013-02-13 12:03:00,43.0,43.0,29.59,NNE,22,2.0,10.0,100,0.00,,,0.04,Weather View 32 v70,2013-02-13 17:03:00,
2013-02-13 12:08:00,43.0,43.0,29.58,SSE,158,3.0,10.0,100,0.00,,,0.04,Weather View 32 v70,2013-02-13 17:08:00,
2013-02-13 12:13:00,43.0,43.0,29.58,East,90,2.0,10.0,100,0.00,,,0.04,Weather View 32 v70,2013-02-13 17:13:00,
2013-02-13 12:18:00,43.0,43.0,29.57,SE,135,3.0,11.0,100,0.00,,,0.04,Weather View 32 v70,2013-02-13 17:18:00,
2013-02-13 12:23:00,43.0,43.0,29.56,ENE,68,3.0,13.0,100,0.00,,,0.04,Weather View 32 v70,2013-02-13 17:23:00,
2013-02-13 12:28:00,43.0,43.0,29.55,West,270,3.0,13.0,100,0.00,,,0.04,Weather View 32 v70,2013-02-13 17:28:00,
2013-02-13 12:33:00,43.0,43.0,29.55,WNW,292,3.0,13.0,100,0.00,,,0.04,Weather View 32 v70,2013-02-13 17:33:00,
2013-02-13 12:38:00,43.0,43.0,29.56,ESE,112,2.0,13.0,100,0.00,,,0.04,Weather View 32 v70,2013-02-13 17:38:00,
2013-02-13 12:43:00,43.0,43.0,29.54,NNE,22,1.0,13.0,100,0.00,,,0.04,Weather View 32 v70,2013-02-13 17:43:00,
2013-02-13 12:48:00,43.0,43.0,29.54,SSW,202,7.0,13.0,100,0.00,,,0.04,Weather View 32 v70,2013-02-13 17:48:00,
2013-02-13 12:53:00,43.0,43.0,29.55,SE,135,5.0,13.0,100,0.00,,,0.04,Weather View 32 v70,2013-02-13 17:53:00,
2013-02-13 12:58:00,43.0,43.0,29.54,NNE,22,2.0,13.0,100,0.00,,,0.04,Weather View 32 v70,2013-02-13 17:58:00,
2013-02-13 13:03:00,43.0,43.0,29.54,West,270,10.0,13.0,100,0.00,,,0.04,Weather View 32 v70,2013-02-13 18:03:00,
2013-02-13 13:08:00,43.0,43.0,29.53,SSW,202,6.0,13.0,100,0.00,,,0.04,Weather View 32 v70,2013-02-13 18:08:00,
2013-02-13 13:13:00,43.0,43.0,29.54,ENE,68,3.0,13.0,100,0.00,,,0.04,Weather View 32 v70,2013-02-13 18:13:00,
2013-02-13 13:18:00,43.0,43.0,29.54,ESE,112,3.0,13.0,100,0.00,,,0.04,Weather View 32 v70,2013-02-13 18:18:00,
2013-02-13 13:23:00,43.0,43.0,29.53,SW,225,9.0,13.0,100,0.00,,,0.04,Weather View 32 v70,2013-02-13 18:23:00,
2013-02-13 13:28:00,43.0,43.0,29.53,West,270,5.0,13.0,100,0.00,,,0.04,Weather View 32 v70,2013-02-13 18:28:00,
2013-02-13 13:33:00,43.0,43.0,29.52,SSE,158,3.0,13.0,100,0.00,,,0.04,Weather View 32 v70,2013-02-13 18:33:00,
2013-02-13 13:38:00,43.0,43.0,29.52,SSE,158,5.0,13.0,100,0.00,,,0.04,Weather View 32 v70,2013-02-13 18:38:00,
2013-02-13 13:43:00,43.0,43.0,29.52,East,90,1.0,13.0,100,0.00,,,0.04,Weather View 32 v70,2013-02-13 18:43:00,
2013-02-13 13:48:00,43.0,43.0,29.52,East,90,6.0,13.0,100,0.00,,,0.04,Weather View 32 v70,2013-02-13 18:48:00,
2013-02-13 13:53:00,43.0,43.0,29.52,ENE,68,3.0,13.0,100,0.00,,,0.04,Weather View 32 v70,2013-02-13 18:53:00,
2013-02-13 13:58:00,43.0,43.0,29.52,ENE,68,3.0,14.0,100,0.00,,,0.04,Weather View 32 v70,2013-02-13 18:58:00,
2013-02-13 14:03:00,44.0,44.0,29.53,West,270,6.0,14.0,100,0.00,,,0.04,Weather View 32 v70,2013-02-13 19:03:00,
2013-02-13 14:08:00,44.0,44.0,29.53,NNE,22,4.0,14.0,100,0.00,,,0.04,Weather View 32 v70,2013-02-13 19:08:00,
2013-02-13 14:13:00,44.0,44.0,29.52,SSW,202,2.0,14.0,100,0.00,,,0.04,Weather View 32 v70,2013-02-13 19:13:00,
2013-02-13 14:18:00,44.0,44.0,29.52,ESE,112,3.0,14.0,100,0.00,,,0.04,Weather View 32 v70,2013-02-13 19:18:00,
2013-02-13 14:23:00,44.0,44.0,29.51,ENE,68,4.0,14.0,100,0.00,,,0.04,Weather View 32 v70,2013-02-13 19:23:00,
2013-02-13 14:28:00,45.0,45.0,29.52,NNE,22,3.0,14.0,100,0.00,,,0.04,Weather View 32 v70,2013-02-13 19:28:00,
2013-02-13 14:33:00,45.0,45.0,29.52,ENE,68,4.0,14.0,100,0.00,,,0.04,Weather View 32 v70,2013-02-13 19:33:00,
2013-02-13 14:39:00,45.0,45.0,29.52,SE,135,4.0,14.0,100,0.00,,,0.04,Weather View 32 v70,2013-02-13 19:39:00,
2013-02-13 14:44:00,45.0,45.0,29.52,SE,135,6.0,14.0,100,0.00,,,0.04,Weather View 32 v70,2013-02-13 19:44:00,
2013-02-13 14:49:00,45.0,45.0,29.52,ESE,112,2.0,14.0,100,0.00,,,0.04,Weather View 32 v70,2013-02-13 19:49:00,
2013-02-13 14:54:00,45.0,45.0,29.52,ESE,112,4.0,18.0,100,0.00,,,0.04,Weather View 32 v70,2013-02-13 19:54:00,
2013-02-13 14:59:00,46.0,46.0,29.51,SW,225,7.0,18.0,100,0.00,,,0.04,Weather View 32 v70,2013-02-13 19:59:00,
2013-02-13 15:04:00,47.0,47.0,29.51,SSE,158,3.0,18.0,100,0.00,,,0.04,Weather View 32 v70,2013-02-13 20:04:00,
2013-02-13 15:09:00,47.0,47.0,29.51,SW,225,5.0,18.0,100,0.00,,,0.04,Weather View 32 v70,2013-02-13 20:09:00,
2013-02-13 15:14:00,48.0,48.0,29.50,West,270,5.0,18.0,100,0.00,,,0.04,Weather View 32 v70,2013-02-13 20:14:00,
2013-02-13 15:19:00,48.0,48.0,29.50,South,180,13.0,18.0,100,0.00,,,0.04,Weather View 32 v70,2013-02-13 20:19:00,
2013-02-13 15:24:00,48.0,48.0,29.50,SE,135,2.0,18.0,100,0.00,,,0.04,Weather View 32 v70,2013-02-13 20:24:00,
2013-02-13 15:29:00,49.0,49.0,29.51,WNW,292,14.0,19.0,100,0.00,,,0.04,Weather View 32 v70,2013-02-13 20:29:00,
2013-02-13 15:34:00,50.0,49.5,29.51,West,270,7.0,23.0,98,0.00,,,0.04,Weather View 32 v70,2013-02-13 20:34:00,
2013-02-13 15:39:00,50.0,48.9,29.51,WSW,248,21.0,23.0,96,0.00,,,0.04,Weather View 32 v70,2013-02-13 20:39:00,
2013-02-13 15:44:00,50.0,47.5,29.51,WSW,248,14.0,25.0,91,0.00,,,0.04,Weather View 32 v70,2013-02-13 20:44:00,
2013-02-13 15:49:00,50.0,46.6,29.51,WSW,248,17.0,25.0,88,0.00,,,0.04,Weather View 32 v70,2013-02-13 20:49:00,
2013-02-13 15:54:00,51.0,47.3,29.51,West,270,11.0,25.0,87,0.00,,,0.04,Weather View 32 v70,2013-02-13 20:54:00,
2013-02-13 15:59:00,51.0,46.6,29.52,South,180,11.0,25.0,85,0.00,,,0.04,Weather View 32 v70,2013-02-13 20:59:00,
2013-02-13 16:04:00,51.0,46.3,29.52,SSW,202,12.0,26.0,84,0.00,,,0.04,Weather View 32 v70,2013-02-13 21:04:00,
2013-02-13 16:09:00,51.0,45.7,29.53,SW,225,11.0,26.0,82,0.00,,,0.04,Weather View 32 v70,2013-02-13 21:09:00,
2013-02-13 16:14:00,51.0,45.0,29.53,WSW,248,16.0,26.0,80,0.00,,,0.04,Weather View 32 v70,2013-02-13 21:14:00,
2013-02-13 16:19:00,51.0,44.7,29.52,SW,225,18.0,28.0,79,0.00,,,0.04,Weather View 32 v70,2013-02-13 21:19:00,
2013-02-13 16:24:00,51.0,44.0,29.52,West,270,14.0,29.0,77,0.00,,,0.04,Weather View 32 v70,2013-02-13 21:24:00,
2013-02-13 16:29:00,51.0,44.4,29.53,SSW,202,11.0,30.0,78,0.00,,,0.04,Weather View 32 v70,2013-02-13 21:29:00,
2013-02-13 16:34:00,51.0,44.0,29.53,South,180,5.0,30.0,77,0.00,,,0.04,Weather View 32 v70,2013-02-13 21:34:00,
2013-02-13 16:39:00,51.0,43.3,29.53,WSW,248,8.0,30.0,75,0.00,,,0.04,Weather View 32 v70,2013-02-13 21:39:00,
2013-02-13 16:44:00,51.0,43.7,29.54,WSW,248,16.0,30.0,76,0.00,,,0.04,Weather View 32 v70,2013-02-13 21:44:00,
2013-02-13 16:49:00,50.0,42.7,29.53,WSW,248,8.0,30.0,76,0.00,,,0.04,Weather View 32 v70,2013-02-13 21:49:00,
2013-02-13 16:54:00,50.0,42.7,29.54,West,270,13.0,30.0,76,0.00,,,0.04,Weather View 32 v70,2013-02-13 21:54:00,
2013-02-13 16:59:00,50.0,42.4,29.55,WSW,248,10.0,30.0,75,0.00,,,0.04,Weather View 32 v70,2013-02-13 21:59:00,
2013-02-13 17:04:00,50.0,42.7,29.55,SW,225,19.0,30.0,76,0.00,,,0.04,Weather View 32 v70,2013-02-13 22:04:00,
2013-02-13 17:09:00,50.0,42.0,29.54,WSW,248,13.0,30.0,74,0.00,,,0.04,Weather View 32 v70,2013-02-13 22:09:00,
2013-02-13 17:15:00,50.0,42.4,29.54,WSW,248,14.0,30.0,75,0.00,,,0.04,Weather View 32 v70,2013-02-13 22:15:00,
2013-02-13 17:20:00,49.0,41.4,29.55,SW,225,10.0,30.0,75,0.00,,,0.04,Weather View 32 v70,2013-02-13 22:20:00,
2013-02-13 17:25:00,49.0,41.4,29.55,WSW,248,10.0,30.0,75,0.00,,,0.04,Weather View 32 v70,2013-02-13 22:25:00,
2013-02-13 17:30:00,49.0,41.4,29.56,SW,225,9.0,24.0,75,0.00,,,0.04,Weather View 32 v70,2013-02-13 22:30:00,
2013-02-13 17:35:00,49.0,41.1,29.56,WSW,248,14.0,24.0,74,0.00,,,0.04,Weather View 32 v70,2013-02-13 22:35:00,
2013-02-13 17:40:00,48.0,40.1,29.57,West,270,5.0,24.0,74,0.00,,,0.04,Weather View 32 v70,2013-02-13 22:40:00,
2013-02-13 17:45:00,48.0,39.7,29.57,WSW,248,13.0,24.0,73,0.00,,,0.04,Weather View 32 v70,2013-02-13 22:45:00,
2013-02-13 17:50:00,48.0,39.7,29.58,West,270,6.0,19.0,73,0.00,,,0.04,Weather View 32 v70,2013-02-13 22:50:00,
2013-02-13 17:55:00,48.0,39.4,29.59,West,270,3.0,19.0,72,0.00,,,0.04,Weather View 32 v70,2013-02-13 22:55:00,
2013-02-13 18:00:00,47.0,38.4,29.59,West,270,5.0,19.0,72,0.00,,,0.04,Weather View 32 v70,2013-02-13 23:00:00,
2013-02-13 18:05:00,47.0,38.4,29.59,North,0,13.0,19.0,72,0.00,,,0.04,Weather View 32 v70,2013-02-13 23:05:00,
2013-02-13 18:10:00,46.0,37.1,29.60,WNW,292,13.0,19.0,71,0.00,,,0.04,Weather View 32 v70,2013-02-13 23:10:00,
2013-02-13 18:15:00,46.0,37.5,29.60,NNW,338,5.0,19.0,72,0.00,,,0.04,Weather View 32 v70,2013-02-13 23:15:00,
2013-02-13 18:20:00,46.0,37.5,29.60,NW,315,13.0,19.0,72,0.00,,,0.04,Weather View 32 v70,2013-02-13 23:20:00,
2013-02-13 18:25:00,45.0,37.5,29.61,North,0,13.0,23.0,75,0.00,,,0.04,Weather View 32 v70,2013-02-13 23:25:00,
2013-02-13 18:30:00,45.0,38.2,29.61,NNE,22,10.0,23.0,77,0.00,,,0.04,Weather View 32 v70,2013-02-13 23:30:00,
2013-02-13 18:35:00,44.0,37.6,29.62,North,0,14.0,23.0,78,0.00,,,0.04,Weather View 32 v70,2013-02-13 23:35:00,
2013-02-13 18:40:00,44.0,38.2,29.62,NNE,22,10.0,23.0,80,0.00,,,0.04,Weather View 32 v70,2013-02-13 23:40:00,
2013-02-13 18:45:00,43.0,37.6,29.63,NNE,22,18.0,24.0,81,0.00,,,0.04,Weather View 32 v70,2013-02-13 23:45:00,
2013-02-13 18:50:00,42.0,36.6,29.63,NW,315,14.0,24.0,81,0.00,,,0.04,Weather View 32 v70,2013-02-13 23:50:00,
2013-02-13 18:55:00,42.0,37.2,29.64,North,0,13.0,24.0,83,0.00,,,0.04,Weather View 32 v70,2013-02-13 23:55:00,
2013-02-13 19:00:00,41.0,36.5,29.64,North,0,11.0,24.0,84,0.00,,,0.04,Weather View 32 v70,2013-02-14 00:00:00,
2013-02-13 19:05:00,41.0,37.1,29.65,NNE,22,10.0,24.0,86,0.00,,,0.04,Weather View 32 v70,2013-02-14 00:05:00,
2013-02-13 19:10:00,40.0,36.4,29.65,North,0,14.0,24.0,87,0.00,,,0.04,Weather View 32 v70,2013-02-14 00:10:00,
2013-02-13 19:15:00,40.0,36.7,29.65,North,0,10.0,24.0,88,0.00,,,0.04,Weather View 32 v70,2013-02-14 00:15:00,
2013-02-13 19:20:00,39.0,36.0,29.65,NNE,22,8.0,24.0,89,0.00,,,0.04,Weather View 32 v70,2013-02-14 00:20:00,
2013-02-13 19:25:00,39.0,36.3,29.65,North,0,11.0,24.0,90,0.00,,,0.04,Weather View 32 v70,2013-02-14 00:25:00,
2013-02-13 19:30:00,39.0,36.3,29.65,NNE,22,11.0,24.0,90,0.00,,,0.04,Weather View 32 v70,2013-02-14 00:30:00,
2013-02-13 19:35:00,38.0,35.6,29.66,North,0,14.0,24.0,91,0.00,,,0.04,Weather View 32 v70,2013-02-14 00:35:00,
2013-02-13 19:40:00,38.0,35.6,29.67,NNE,22,13.0,24.0,91,0.00,,,0.04,Weather View 32 v70,2013-02-14 00:40:00,
2013-02-13 19:45:00,38.0,35.9,29.66,NNE,22,12.0,24.0,92,0.00,,,0.04,Weather View 32 v70,2013-02-14 00:45:00,
2013-02-13 19:50:00,38.0,36.2,29.67,North,0,13.0,24.0,93,0.00,,,0.04,Weather View 32 v70,2013-02-14 00:50:00,
2013-02-13 19:55:00,37.0,35.2,29.66,NNE,22,16.0,23.0,93,0.00,,,0.04,Weather View 32 v70,2013-02-14 00:55:00,
2013-02-13 20:00:00,37.0,35.4,29.67,NW,315,10.0,23.0,94,0.00,,,0.04,Weather View 32 v70,2013-02-14 01:00:00,
2013-02-13 20:05:00,37.0,35.4,29.66,NNW,338,10.0,23.0,94,0.00,,,0.04,Weather View 32 v70,2013-02-14 01:05:00,
2013-02-13 20:10:00,37.0,34.9,29.66,NW,315,12.0,23.0,92,0.00,,,0.04,Weather View 32 v70,2013-02-14 01:10:00,
2013-02-13 20:15:00,37.0,34.6,29.66,North,0,9.0,21.0,91,0.00,,,0.04,Weather View 32 v70,2013-02-14 01:15:00,
2013-02-13 20:20:00,37.0,34.6,29.67,North,0,11.0,21.0,91,0.00,,,0.04,Weather View 32 v70,2013-02-14 01:20:00,
2013-02-13 20:25:00,37.0,34.6,29.67,North,0,10.0,21.0,91,0.00,,,0.04,Weather View 32 v70,2013-02-14 01:25:00,
2013-02-13 20:30:00,37.0,34.6,29.67,North,0,12.0,21.0,91,0.00,,,0.04,Weather View 32 v70,2013-02-14 01:30:00,
2013-02-13 20:35:00,37.0,34.6,29.67,North,0,12.0,21.0,91,0.00,,,0.04,Weather View 32 v70,2013-02-14 01:35:00,
2013-02-13 20:40:00,37.0,34.6,29.67,NNW,338,13.0,21.0,91,0.00,,,0.04,Weather View 32 v70,2013-02-14 01:40:00,
2013-02-13 20:45:00,36.0,33.6,29.67,North,0,14.0,21.0,91,0.00,,,0.04,Weather View 32 v70,2013-02-14 01:45:00,
2013-02-13 20:50:00,36.0,33.9,29.68,NNW,338,14.0,20.0,92,0.00,,,0.04,Weather View 32 v70,2013-02-14 01:50:00,
2013-02-13 20:55:00,36.0,33.9,29.68,North,0,11.0,20.0,92,0.00,,,0.04,Weather View 32 v70,2013-02-14 01:55:00,
2013-02-13 21:00:00,36.0,34.2,29.68,North,0,12.0,22.0,93,0.00,,,0.04,Weather View 32 v70,2013-02-14 02:00:00,
2013-02-13 21:05:00,36.0,34.2,29.69,North,0,21.0,22.0,93,0.00,,,0.04,Weather View 32 v70,2013-02-14 02:05:00,
2013-02-13 21:10:00,36.0,34.2,29.69,North,0,14.0,23.0,93,0.00,,,0.04,Weather View 32 v70,2013-02-14 02:10:00,
2013-02-13 21:15:00,35.0,33.4,29.69,NNW,338,11.0,23.0,94,0.00,,,0.04,Weather View 32 v70,2013-02-14 02:15:00,
2013-02-13 21:20:00,35.0,33.4,29.69,NNW,338,14.0,23.0,94,0.00,,,0.04,Weather View 32 v70,2013-02-14 02:20:00,
2013-02-13 21:25:00,35.0,33.4,29.70,North,0,15.0,23.0,94,0.00,,,0.04,Weather View 32 v70,2013-02-14 02:25:00,
2013-02-13 21:30:00,35.0,33.7,29.70,North,0,10.0,23.0,95,0.00,,,0.04,Weather View 32 v70,2013-02-14 02:30:00,
2013-02-13 21:35:00,35.0,33.7,29.70,NNW,338,8.0,23.0,95,0.00,,,0.04,Weather View 32 v70,2013-02-14 02:35:00,
2013-02-13 21:40:00,35.0,33.7,29.70,NNW,338,14.0,23.0,95,0.00,,,0.04,Weather View 32 v70,2013-02-14 02:40:00,
2013-02-13 21:45:00,34.0,32.7,29.70,North,0,10.0,23.0,95,0.00,,,0.04,Weather View 32 v70,2013-02-14 02:45:00,
2013-02-13 21:50:00,34.0,32.7,29.71,NNE,22,11.0,23.0,95,0.00,,,0.04,Weather View 32 v70,2013-02-14 02:50:00,
2013-02-13 21:55:00,34.0,32.7,29.71,North,0,11.0,23.0,95,0.00,,,0.04,Weather View 32 v70,2013-02-14 02:55:00,
2013-02-13 22:00:00,34.0,32.7,29.71,NNE,22,21.0,23.0,95,0.00,,,0.04,Weather View 32 v70,2013-02-14 03:00:00,
2013-02-13 22:05:00,34.0,32.7,29.71,NNE,22,10.0,24.0,95,0.00,,,0.04,Weather View 32 v70,2013-02-14 03:05:00,
2013-02-13 22:10:00,34.0,32.7,29.71,North,0,15.0,24.0,95,0.00,,,0.04,Weather View 32 v70,2013-02-14 03:10:00,
2013-02-13 22:15:00,34.0,32.7,29.72,NNE,22,11.0,24.0,95,0.00,,,0.04,Weather View 32 v70,2013-02-14 03:15:00,
2013-02-13 22:20:00,34.0,33.0,29.72,North,0,18.0,24.0,96,0.00,,,0.04,Weather View 32 v70,2013-02-14 03:20:00,
2013-02-13 22:25:00,34.0,32.7,29.72,NNE,22,8.0,24.0,95,0.00,,,0.04,Weather View 32 v70,2013-02-14 03:25:00,
2013-02-13 22:30:00,34.0,32.7,29.72,NNE,22,11.0,24.0,95,0.00,,,0.04,Weather View 32 v70,2013-02-14 03:30:00,
2013-02-13 22:36:00,34.0,32.7,29.72,NE,45,10.0,24.0,95,0.00,,,0.04,Weather View 32 v70,2013-02-14 03:36:00,
2013-02-13 22:41:00,34.0,32.7,29.72,North,0,12.0,24.0,95,0.00,,,0.04,Weather View 32 v70,2013-02-14 03:41:00,
2013-02-13 22:46:00,34.0,32.7,29.72,NNW,338,12.0,24.0,95,0.00,,,0.04,Weather View 32 v70,2013-02-14 03:46:00,
2013-02-13 22:51:00,34.0,32.5,29.73,NNW,338,8.0,24.0,94,0.00,,,0.04,Weather View 32 v70,2013-02-14 03:51:00,
2013-02-13 22:56:00,34.0,32.7,29.73,NW,315,15.0,24.0,95,0.00,,,0.04,Weather View 32 v70,2013-02-14 03:56:00,
2013-02-13 23:01:00,34.0,32.7,29.73,NNE,22,13.0,24.0,95,0.00,,,0.04,Weather View 32 v70,2013-02-14 04:01:00,
2013-02-13 23:06:00,34.0,32.7,29.73,North,0,11.0,24.0,95,0.00,,,0.04,Weather View 32 v70,2013-02-14 04:06:00,
2013-02-13 23:11:00,34.0,32.7,29.73,North,0,10.0,24.0,95,0.00,,,0.04,Weather View 32 v70,2013-02-14 04:11:00,
2013-02-13 23:16:00,33.0,31.7,29.73,NW,315,10.0,24.0,95,0.00,,,0.04,Weather View 32 v70,2013-02-14 04:16:00,
2013-02-13 23:21:00,33.0,31.7,29.73,North,0,11.0,24.0,95,0.00,,,0.04,Weather View 32 v70,2013-02-14 04:21:00,
2013-02-13 23:26:00,34.0,32.5,29.73,NNE,22,14.0,24.0,94,0.00,,,0.04,Weather View 32 v70,2013-02-14 04:26:00,
2013-02-13 23:31:00,34.0,32.5,29.73,NNE,22,11.0,24.0,94,0.00,,,0.04,Weather View 32 v70,2013-02-14 04:31:00,
2013-02-13 23:36:00,34.0,32.5,29.73,NE,45,15.0,24.0,94,0.00,,,0.04,Weather View 32 v70,2013-02-14 04:36:00,
2013-02-13 23:41:00,33.0,31.5,29.74,NNE,22,18.0,24.0,94,0.00,,,0.04,Weather View 32 v70,2013-02-14 04:41:00,
2013-02-13 23:46:00,33.0,31.5,29.74,NNE,22,16.0,24.0,94,0.00,,,0.04,Weather View 32 v70,2013-02-14 04:46:00,
2013-02-13 23:51:00,34.0,32.5,29.75,NNW,338,10.0,24.0,94,0.00,,,0.04,Weather View 32 v70,2013-02-14 04:51:00,
2013-02-13 23:56:00,34.0,32.5,29.75,NNW,338,6.0,24.0,94,0.00,,,0.04,Weather View 32 v70,2013-02-14 04:56:00,